Location: Geyikbay?r?
(36.8756°N, 30.4583°E)
Time: 06:33:39
(UTC+00:00)

Cosmos 676 Rocket - Pass Details

Date: 05 August 2024
Orbit: 752 x 781 km, 74.0° (Epoch: 10 September)

Event Time Altitude Azimuth Distance (km) Brightness Sun altitude
Rises 18:53:51 0° 344° (NNW) 3,211 8.2 -20.2°
Reaches altitude 10° 18:56:13 10° 346° (NNW) 2,285 7.2 -20.5°
Maximum altitude 19:01:24 73° 71° (ENE) 792 3.9 -21.3°
Enters shadow 19:02:44 49° 141° (SE) 967 4.1 -21.5°
